{"data":{"norad_id":57733,"epoch":"2026-09-20T23:19:54.250752Z","epoch_age_seconds":90463,"freshness":"FRESH","line1":"1 57733U 23131B   26263.97215568  .00000560  00000+0  29896-4 0  9995","line2":"2 57733  43.0019 157.1560 0001463 257.3507 102.7181 15.27576179169705","mean_motion":15.27576179,"eccentricity":0.0001463,"inclination_deg":43.0019,"raan_deg":157.156,"arg_perigee_deg":257.3507,"mean_anomaly_deg":102.7181,"bstar":2.9896e-5,"rev_number":16970,"period_min":94.266984507618,"perigee_km":482.05674431236,"apogee_km":484.06433071184,"semimajor_km":6861.1975375121,"source":"CELESTRAK","updated_at":"2026-09-21T09:00:33.678254Z"}}